User: anonymous   Login
Location: Exeidioux
(45.6312°N, 1.6819°E)
Time: 15:37:12
(UTC+00:00)
Language:

H-2A R/B - Orbit

View from above orbital plane
View from above orbital plane
View from above satellite
View from above satellite

Ground track
Ground track

The orbit data is extracted from the following two-line orbital elements,

1 38341U 12025E   21138.05597316  .00000116  00000-0  21191-4 0  9996
2 38341  98.5277 321.4646 0054318 236.4488 123.1531 14.84218339487076
Epoch (UTC): 18 May 2021 01:20:36
Eccentricity: 0.0054318
inclination: 98.5277°
perigee height: 578 km
apogee height: 654 km
right ascension of ascending node: 321.4646°
argument of perigee: 236.4488°
revolutions per day: 14.84218339
mean anomaly at epoch: 123.1531°
orbit number at epoch: 48707

The dashed part of the orbit path shows where the satellite is in the earth's shadow,  

DLR